Location: Unspecified
(0.0000°N, 0.0000°E)
Time: 06:06:44
(UTC+00:00)

Transit 4A - Pass Details

Date: 01 October 2020
Orbit: 862 x 982 km, 66.8° (Epoch: 28 October)

Event Time Altitude Azimuth Distance (km) Brightness Sun altitude
Rises 06:45:36 0° 6° (N) 3,649 11.0 14.0°
Reaches altitude 10° 06:48:49 10° 21° (NNE) 2,691 10.6 14.8°
Maximum altitude 06:53:28 22° 70° (ENE) 1,957 11.1 15.9°
Drops below altitude 10° 06:58:02 10° 118° (ESE) 2,643 11.7 17.1°
Sets 07:01:08 0° 133° (SE) 3,566 11.8 17.9°
